Location: Santaluz Observatory
(32.9930°N, 117.1510°W)
Time: 15:49:26
(UTC-07:00)

Daily predictions for brighter satellites

Satellite Brightness Start Highest point End
(mag) Time Altitude Azimuth Time Altitude Azimuth Time Altitude Azimuth
Thor Agena Rocket 3.7 19:02:45 10° NNE 19:07:51 52° E 19:12:52 10° S
FENGYUN 3A 3.9 19:04:23 10° SE 19:09:29 48° ENE 19:14:37 10° N
Cosmos 1656 Rocket 4.4 19:05:50 10° N 19:10:50 32° ENE 19:15:46 10° SE
NOAA 12 4.1 19:06:18 10° SSE 19:11:25 60° ENE 19:16:36 10° N
METEOR-M 4.2 19:07:48 10° SSE 19:13:09 87° WSW 19:18:32 10° NNW
EXPRESS MD2 4.0 19:12:12 10° WNW 19:14:45 42° SW 19:19:02 10° SSE
ISS -2.8 19:14:01 10° SSW 19:16:51 28° SE 19:19:43 10° ENE
SPOT 3 Rocket 3.7 19:12:50 10° S 19:17:57 79° WSW 19:23:08 10° NNW
Cosmos 482 Debris 3.8 19:15:09 10° NW 19:19:02 52° NE 19:21:12 12° ESE
Cosmos 1766 4.1 19:15:47 10° SSE 19:19:09 28° E 19:22:30 10° NNE
Cosmos 304 Rocket 3.7 19:15:11 10° S 19:19:56 75° ESE 19:24:43 10° NNE
Cosmos 1825 Rocket 3.8 19:16:13 10° N 19:20:39 77° W 19:25:04 10° S
Meteor 2-13 Rocket 4.4 19:15:04 10° S 19:21:07 73° E 19:27:11 10° N
Cosmos 1544 4.2 19:18:33 10° SE 19:21:25 23° E 19:24:18 10° NE
Cosmos 1707 2.7 19:18:13 10° N 19:22:07 62° E 19:25:59 10° SSE
OAO 3 Copernicus 4.4 19:17:28 10° W 19:22:32 74° N 19:27:10 12° ENE
COSMOS 2406 3.3 19:18:12 10° S 19:23:42 54° ESE 19:29:17 10° NNE
Cosmos 1898 Rocket 3.8 19:19:14 10° NNW 19:24:24 73° WSW 19:29:32 10° S
Meteor 2-5 Rocket 3.8 19:20:51 10° N 19:26:37 60° E 19:32:13 10° SSE
Cosmos 990 Rocket 3.9 19:21:55 10° NNW 19:27:04 72° ENE 19:32:10 10° SSE
Cosmos 2369 Rocket 3.7 19:22:06 10° NW 19:27:17 39° WSW 19:32:26 10° S
Cosmos 1378 3.1 19:25:22 10° N 19:29:08 68° E 19:32:52 10° SSE
USA 234 3.5 19:22:50 10° SE 19:29:22 74° SW 19:35:56 10° NW
SL-08 ROCKET BODY 4.3 19:25:00 10° S 19:30:51 86° E 19:36:48 10° N
FengYun 1-2 T 4.4 19:30:31 10° SSE 19:35:57 52° ENE 19:41:20 10° N
ALOS 2.4 19:34:10 10° S 19:38:49 79° WSW 19:43:29 10° NNW
Envisat 4.4 19:38:12 17° E 19:39:24 18° ENE 19:42:47 10° NNE
Geosat 4.0 19:34:41 10° SE 19:39:38 62° ENE 19:44:36 10° NNW
BREEZE M DEB (TANK) 4.3 19:34:17 10° NW 19:39:56 26° NNE 19:41:48 17° ENE
FREGAT/IRIS 2.4 19:42:00 10° SSE 19:45:01 80° ENE 19:48:03 10° N
USA 81 4.3 19:45:44 10° N 19:51:01 75° W 19:56:16 10° S
Cosmos 1805 3.6 19:48:43 10° SSE 19:52:22 41° E 19:56:03 10° NNE
SL-27 R/B 2.8 19:53:59 10° S 19:57:20 40° ESE 19:57:55 37° ENE
CZ-2D R/B 3.7 19:58:42 36° E 19:59:11 38° ENE 20:02:45 10° N
Cosmos 1900 4.3 19:57:30 10° SSW 20:02:30 66° ESE 20:07:35 10° NNE
HJ-1C 3.3 20:02:59 20° S 20:05:09 88° W 20:08:31 10° NNW
Resurs 1-3 4.1 20:05:33 36° ENE 20:05:44 36° ENE 20:09:45 10° N
Centaur AC-112 4.2 20:03:22 10° SW 20:07:20 17° S 20:08:03 16° S
Milstar 3 Cent rocket 2.5 20:04:44 10° WSW 20:09:50 41° S 20:11:01 34° SE
Cosmos 540 Rocket 3.9 20:07:53 10° SSW 20:12:55 63° WNW 20:17:59 10° N
Cosmos 2154 Rocket 3.9 20:08:10 10° S 20:14:18 67° E 20:20:30 10° NNE
NOSS 3-1 (A) 4.1 20:07:24 10° NNW 20:15:17 75° ENE 20:20:55 24° SE
SJ-6B 3.7 20:17:52 10° S 20:21:47 49° W 20:25:38 10° NNW
Yuri Rocket 3.4 20:19:16 10° WSW 20:23:36 44° S 20:23:42 44° S
NOSS 3-1 (C) 4.3 20:15:54 10° NNW 20:23:48 76° WSW 20:31:09 15° SSE
Cosmos 1953 4.3 20:28:52 18° NNE 20:28:52 18° NNE 20:29:59 10° NNE
Cosmos 2341 Rocket 3.9 20:20:32 10° S 20:26:35 58° E 20:32:40 10° NNE
Meteor 1-24 Rocket 4.2 20:21:54 10° NNW 20:27:43 61° W 20:33:20 10° S
Resurs 01 Rocket 1.4 20:29:29 75° ESE 20:29:41 77° ENE 20:34:06 10° N
Cosmos 1812 Rocket 4.2 20:28:52 10° SSW 20:33:13 56° W 20:37:37 10° N
GP-B 3.1 20:33:16 10° N 20:37:42 77° W 20:38:34 56° SSW
BREEZE-M DEB 3.8 20:37:32 10° WNW 20:42:01 40° WSW 20:42:01 40° WSW
Spot 2 Rocket 3.3 20:45:17 80° S 20:45:35 87° W 20:50:39 10° NNW
Nadezhda 3 Rocket 4.0 20:43:57 10° N 20:50:15 83° W 20:52:40 40° S
ISS -1.1 20:50:45 10° W 20:52:28 19° WNW 20:52:28 19° WNW
Cosmos 292 Rocket 4.5 20:49:27 10° SSW 20:54:10 53° WNW 20:58:56 10° N
Cosmos 2285 Rocket 3.8 20:48:34 10° S 20:54:58 79° ESE 21:01:25 10° NNE
ATLAS CENTAUR R/B 3.3 20:49:56 10° NW 20:58:37 44° WSW 20:59:18 42° SW
Envisat 4.1 21:18:25 42° W 21:18:25 42° W 21:22:51 10° NNW
ATLAS 2AS CENTAUR R/B 3.8 21:49:28 10° NNW 21:54:31 42° N 21:54:31 42° N
